CEB455 RPLL-RPVI

Flight info

Callsign CEB455
Flight time 0h 45m
Altitude 29000
Route HARBO1 HARBO DCT VERDE W24 TAPER B472 LAMBO LAMBO2S
Aircraft A21N/M-SDE3FGHIRWY/LB1

Departure

Time 2026-04-14 14:27
Airport Ninoy Aquino International Airport (RPLL)

Arrival

Time 2026-04-14 15:12
Airport Iloilo International Airport (RPVI)
Time Latitude Longitude Altitude Speed Heading
2026-04-14 14:20 14.52388 121.00625 84 ft 0 kts 135°
2026-04-14 14:21 14.52387 121.00626 84 ft 0 kts 135°
2026-04-14 14:21 14.52379 121.00635 84 ft 3 kts 135°
2026-04-14 14:21 14.52359 121.00656 84 ft 5 kts 134°
2026-04-14 14:22 14.52327 121.00689 84 ft 7 kts 134°
2026-04-14 14:22 14.52282 121.00736 84 ft 10 kts 135°
2026-04-14 14:22 14.52216 121.00771 84 ft 9 kts 198°
2026-04-14 14:22 14.52148 121.00772 84 ft 10 kts 145°
2026-04-14 14:23 14.52085 121.00835 84 ft 14 kts 135°
2026-04-14 14:23 14.52006 121.00916 84 ft 18 kts 135°
2026-04-14 14:23 14.51909 121.01016 84 ft 21 kts 135°
2026-04-14 14:23 14.51800 121.01131 84 ft 23 kts 135°
2026-04-14 14:24 14.51680 121.01254 84 ft 25 kts 134°
2026-04-14 14:24 14.51550 121.01391 84 ft 27 kts 136°
2026-04-14 14:24 14.51418 121.01525 84 ft 25 kts 135°
2026-04-14 14:24 14.51294 121.01653 84 ft 24 kts 135°
2026-04-14 14:25 14.51179 121.01771 84 ft 22 kts 134°
2026-04-14 14:25 14.51079 121.01861 84 ft 17 kts 170°
2026-04-14 14:25 14.51032 121.01788 84 ft 10 kts 294°
2026-04-14 14:25 14.51063 121.01747 84 ft 0 kts 316°
2026-04-14 14:26 14.51169 121.01639 84 ft 61 kts 315°
2026-04-14 14:26 14.51683 121.01109 84 ft 143 kts 315°
2026-04-14 14:27 14.52511 121.00307 456 ft 173 kts 318°
2026-04-14 14:27 14.53366 120.99477 1344 ft 170 kts 315°
2026-04-14 14:27 14.54143 120.98650 2212 ft 156 kts 314°
2026-04-14 14:27 14.54907 120.97824 2478 ft 164 kts 315°
2026-04-14 14:28 14.55725 120.96953 2711 ft 175 kts 315°
2026-04-14 14:28 14.56617 120.96014 2940 ft 189 kts 315°
2026-04-14 14:28 14.57383 120.94860 3179 ft 202 kts 284°
2026-04-14 14:28 14.57231 120.93438 3409 ft 211 kts 239°
2026-04-14 14:29 14.56100 120.92464 3649 ft 219 kts 196°
2026-04-14 14:29 14.54579 120.92428 3950 ft 227 kts 170°
2026-04-14 14:29 14.53006 120.92741 4418 ft 231 kts 167°
2026-04-14 14:29 14.51393 120.93066 4771 ft 245 kts 169°
2026-04-14 14:30 14.49654 120.93355 5168 ft 258 kts 171°
2026-04-14 14:30 14.47888 120.93598 5731 ft 265 kts 172°
2026-04-14 14:30 14.46635 120.93753 6027 ft 273 kts 172°
2026-04-14 14:30 14.46022 120.93825 6200 ft 276 kts 172°
2026-04-14 14:31 14.43448 120.94109 7080 ft 281 kts 172°
2026-04-14 14:31 14.40200 120.94446 8117 ft 288 kts 172°
2026-04-14 14:31 14.38195 120.94649 8694 ft 293 kts 172°
2026-04-14 14:31 14.36150 120.94852 9287 ft 297 kts 172°
2026-04-14 14:32 14.34082 120.95058 9871 ft 300 kts 172°
2026-04-14 14:32 14.31992 120.95264 10364 ft 307 kts 173°
2026-04-14 14:32 14.29804 120.95482 10627 ft 322 kts 173°
2026-04-14 14:32 14.27525 120.95708 10892 ft 337 kts 173°
2026-04-14 14:33 14.25159 120.95940 11149 ft 351 kts 173°
2026-04-14 14:33 14.22674 120.96184 11406 ft 365 kts 173°
2026-04-14 14:33 14.20121 120.96432 11844 ft 372 kts 173°
2026-04-14 14:33 14.17560 120.96680 12426 ft 374 kts 173°
2026-04-14 14:34 14.12357 120.97187 13500 ft 380 kts 174°
2026-04-14 14:34 14.09721 120.97443 14036 ft 382 kts 174°
2026-04-14 14:34 14.07070 120.97701 14549 ft 385 kts 173°
2026-04-14 14:35 14.04374 120.97963 15041 ft 389 kts 173°
2026-04-14 14:35 14.01687 120.98225 15518 ft 392 kts 173°
2026-04-14 14:35 13.98972 120.98489 15987 ft 395 kts 173°
2026-04-14 14:35 13.96244 120.98755 16439 ft 398 kts 173°
2026-04-14 14:36 13.93464 120.99026 16879 ft 402 kts 173°
2026-04-14 14:36 13.90665 120.99299 17321 ft 405 kts 173°
2026-04-14 14:36 13.87856 120.99572 17753 ft 408 kts 173°
2026-04-14 14:36 13.85026 120.99846 18177 ft 411 kts 173°
2026-04-14 14:37 13.82153 121.00124 18602 ft 414 kts 173°
2026-04-14 14:37 13.79294 121.00402 19038 ft 416 kts 173°
2026-04-14 14:37 13.76400 121.00684 19482 ft 418 kts 173°
2026-04-14 14:37 13.73506 121.00964 19916 ft 420 kts 173°
2026-04-14 14:38 13.70593 121.01246 20343 ft 422 kts 173°
2026-04-14 14:38 13.67691 121.01527 20753 ft 424 kts 173°
2026-04-14 14:38 13.64776 121.01808 21154 ft 425 kts 173°
2026-04-14 14:38 13.61796 121.02096 21538 ft 428 kts 173°
2026-04-14 14:39 13.58867 121.02379 21915 ft 430 kts 173°
2026-04-14 14:39 13.55868 121.02670 22299 ft 432 kts 173°
2026-04-14 14:39 13.52905 121.03053 22662 ft 433 kts 167°
2026-04-14 14:39 13.50023 121.03925 23041 ft 433 kts 157°
2026-04-14 14:40 13.47356 121.05301 23452 ft 432 kts 147°
2026-04-14 14:40 13.44873 121.06988 23958 ft 429 kts 144°
2026-04-14 14:40 13.42412 121.08742 24425 ft 428 kts 144°
2026-04-14 14:40 13.39987 121.10474 24848 ft 428 kts 144°
2026-04-14 14:41 13.37552 121.12201 25283 ft 427 kts 144°
2026-04-14 14:41 13.35084 121.13940 25716 ft 426 kts 144°
2026-04-14 14:41 13.32658 121.15648 26113 ft 425 kts 144°
2026-04-14 14:41 13.30225 121.17358 26518 ft 424 kts 144°
2026-04-14 14:42 13.27794 121.19064 26927 ft 423 kts 144°
2026-04-14 14:42 13.25376 121.20761 27308 ft 422 kts 144°
2026-04-14 14:42 13.22934 121.22473 27633 ft 423 kts 144°
2026-04-14 14:42 13.20528 121.24160 27938 ft 423 kts 144°
2026-04-14 14:43 13.18106 121.25857 28237 ft 424 kts 144°
2026-04-14 14:43 13.15655 121.27575 28540 ft 425 kts 144°
2026-04-14 14:43 13.13241 121.29267 28817 ft 426 kts 144°
2026-04-14 14:44 13.08357 121.32690 28912 ft 427 kts 144°
2026-04-14 14:44 13.03424 121.36143 28915 ft 427 kts 144°
2026-04-14 14:45 12.98530 121.39567 28916 ft 427 kts 144°
2026-04-14 14:45 12.93646 121.42983 28916 ft 427 kts 144°
2026-04-14 14:46 12.88716 121.46427 28916 ft 427 kts 144°
2026-04-14 14:46 12.83789 121.49849 28916 ft 427 kts 144°
2026-04-14 14:47 12.78888 121.53261 28916 ft 427 kts 144°
2026-04-14 14:47 12.73982 121.56683 28917 ft 427 kts 144°
2026-04-14 14:48 12.69106 121.60083 28916 ft 427 kts 144°
2026-04-14 14:48 12.64205 121.63502 28916 ft 427 kts 144°
2026-04-14 14:49 12.59294 121.66936 28916 ft 426 kts 144°
2026-04-14 14:49 12.54444 121.70338 28916 ft 426 kts 144°
2026-04-14 14:50 12.49540 121.73758 28916 ft 426 kts 144°
2026-04-14 14:50 12.44632 121.77170 28916 ft 426 kts 144°
2026-04-14 14:51 12.39755 121.80546 28915 ft 426 kts 146°
2026-04-14 14:51 12.34617 121.83555 28916 ft 427 kts 152°
2026-04-14 14:52 12.29202 121.86025 28916 ft 427 kts 155°
2026-04-14 14:52 12.23763 121.88395 28914 ft 427 kts 155°
2026-04-14 14:53 12.18279 121.90784 28915 ft 428 kts 155°
2026-04-14 14:53 12.15552 121.91972 28728 ft 421 kts 155°
2026-04-14 14:53 12.12891 121.93129 27802 ft 419 kts 155°
2026-04-14 14:53 12.10227 121.94290 26208 ft 431 kts 155°
2026-04-14 14:54 12.07459 121.95499 24809 ft 433 kts 155°
2026-04-14 14:54 12.04714 121.96699 24300 ft 432 kts 155°
2026-04-14 14:54 12.01938 121.97912 23774 ft 435 kts 155°
2026-04-14 14:54 11.99161 121.99123 23083 ft 436 kts 155°
2026-04-14 14:55 11.96387 122.00333 22536 ft 433 kts 155°
2026-04-14 14:55 11.93626 122.01537 22061 ft 428 kts 155°
2026-04-14 14:55 11.90937 122.02707 21584 ft 424 kts 155°
2026-04-14 14:55 11.88231 122.03883 21104 ft 420 kts 155°
2026-04-14 14:56 11.82891 122.06192 20138 ft 413 kts 155°
2026-04-14 14:56 11.80254 122.07335 19661 ft 409 kts 155°
2026-04-14 14:56 11.77653 122.08463 19190 ft 406 kts 155°
2026-04-14 14:57 11.75065 122.09587 18718 ft 402 kts 155°
2026-04-14 14:57 11.72527 122.10688 18253 ft 399 kts 155°
2026-04-14 14:57 11.69987 122.11791 17778 ft 396 kts 155°
2026-04-14 14:57 11.67463 122.12888 17298 ft 393 kts 155°
2026-04-14 14:58 11.64941 122.13985 16811 ft 390 kts 155°
2026-04-14 14:58 11.62460 122.15062 16332 ft 387 kts 155°
2026-04-14 14:58 11.59986 122.16136 15852 ft 385 kts 155°
2026-04-14 14:58 11.57552 122.17194 15378 ft 382 kts 155°
2026-04-14 14:59 11.55120 122.18249 14905 ft 380 kts 155°
2026-04-14 14:59 11.52709 122.19295 14435 ft 377 kts 155°
2026-04-14 14:59 11.50311 122.20335 13966 ft 375 kts 155°
2026-04-14 14:59 11.47912 122.21376 13497 ft 373 kts 155°
2026-04-14 15:00 11.45525 122.22410 13030 ft 370 kts 155°
2026-04-14 15:00 11.43165 122.23432 12567 ft 368 kts 155°
2026-04-14 15:00 11.40826 122.24445 12110 ft 366 kts 155°
2026-04-14 15:00 11.38512 122.25448 11660 ft 363 kts 155°
2026-04-14 15:01 11.36189 122.26456 11202 ft 361 kts 155°
2026-04-14 15:01 11.33887 122.27454 10746 ft 359 kts 155°
2026-04-14 15:01 11.31620 122.28436 10364 ft 354 kts 155°
2026-04-14 15:01 11.29383 122.29402 10291 ft 339 kts 155°
2026-04-14 15:02 11.27263 122.30315 10205 ft 325 kts 155°
2026-04-14 15:02 11.25242 122.31185 10115 ft 311 kts 155°
2026-04-14 15:02 11.23297 122.32021 10032 ft 299 kts 155°
2026-04-14 15:02 11.21405 122.32836 9757 ft 296 kts 154°
2026-04-14 15:03 11.19517 122.33652 9406 ft 295 kts 154°
2026-04-14 15:03 11.17703 122.34604 9021 ft 291 kts 137°
2026-04-14 15:03 11.16508 122.36174 8684 ft 280 kts 109°
2026-04-14 15:03 11.16154 122.38094 8355 ft 272 kts 88°
2026-04-14 15:04 11.16188 122.39993 8039 ft 270 kts 86°
2026-04-14 15:04 11.16241 122.41908 7723 ft 268 kts 86°
2026-04-14 15:04 11.16280 122.43793 7411 ft 266 kts 87°
2026-04-14 15:04 11.16305 122.45672 7100 ft 264 kts 87°
2026-04-14 15:05 11.16323 122.47523 6793 ft 263 kts 87°
2026-04-14 15:05 11.16338 122.49387 6482 ft 261 kts 88°
2026-04-14 15:05 11.16339 122.51221 6173 ft 260 kts 91°
2026-04-14 15:05 11.16096 122.53048 5862 ft 260 kts 101°
2026-04-14 15:06 11.15545 122.54807 5556 ft 260 kts 108°
2026-04-14 15:06 11.14896 122.56519 5248 ft 259 kts 109°
2026-04-14 15:06 11.14182 122.58170 5049 ft 254 kts 120°
2026-04-14 15:06 11.12879 122.59344 4976 ft 250 kts 153°
2026-04-14 15:07 11.11190 122.59653 4688 ft 257 kts 184°
2026-04-14 15:07 11.09467 122.59142 4405 ft 258 kts 198°
2026-04-14 15:07 11.07796 122.58470 4108 ft 257 kts 199°
2026-04-14 15:07 11.06143 122.57811 3833 ft 259 kts 199°
2026-04-14 15:08 11.04449 122.57158 3548 ft 258 kts 198°
2026-04-14 15:08 11.02829 122.56545 3481 ft 245 kts 198°
2026-04-14 15:08 11.01255 122.55956 3368 ft 233 kts 198°
2026-04-14 15:08 10.99774 122.55401 3212 ft 220 kts 198°
2026-04-14 15:09 10.98397 122.54887 3093 ft 204 kts 199°
2026-04-14 15:09 10.97108 122.54405 2907 ft 193 kts 199°
2026-04-14 15:09 10.95846 122.53936 2501 ft 191 kts 199°
2026-04-14 15:09 10.94641 122.53490 2243 ft 179 kts 199°
2026-04-14 15:10 10.93515 122.53072 2008 ft 168 kts 200°
2026-04-14 15:10 10.92426 122.52670 1806 ft 165 kts 200°
2026-04-14 15:10 10.91345 122.52270 1589 ft 164 kts 200°
2026-04-14 15:10 10.90284 122.51874 1376 ft 163 kts 200°
2026-04-14 15:11 10.89211 122.51479 1157 ft 162 kts 200°
2026-04-14 15:11 10.88159 122.51095 944 ft 160 kts 200°
2026-04-14 15:11 10.87116 122.50709 732 ft 159 kts 201°
2026-04-14 15:11 10.86083 122.50336 524 ft 158 kts 200°
2026-04-14 15:12 10.85042 122.49971 318 ft 157 kts 200°
2026-04-14 15:12 10.84029 122.49603 150 ft 149 kts 203°
2026-04-14 15:12 10.83285 122.49327 137 ft 73 kts 200°
2026-04-14 15:12 10.82945 122.49201 137 ft 34 kts 201°
2026-04-14 15:13 10.82770 122.49128 135 ft 21 kts 194°
2026-04-14 15:13 10.82694 122.49106 134 ft 5 kts 326°
2026-04-14 15:13 10.82739 122.49124 135 ft 7 kts 29°
2026-04-14 15:13 10.82795 122.49150 136 ft 9 kts 23°
2026-04-14 15:14 10.82867 122.49177 137 ft 13 kts 19°
2026-04-14 15:14 10.82966 122.49211 137 ft 16 kts 19°
2026-04-14 15:14 10.83075 122.49256 137 ft 16 kts 42°
2026-04-14 15:14 10.83069 122.49367 137 ft 17 kts 111°
2026-04-14 15:15 10.83039 122.49448 137 ft 12 kts 109°
2026-04-14 15:15 10.83047 122.49528 137 ft 11 kts 40°
2026-04-14 15:15 10.83115 122.49558 137 ft 6 kts 20°
2026-04-14 15:15 10.83136 122.49580 138 ft 3 kts 84°
2026-04-14 15:16 10.83133 122.49596 138 ft 2 kts 104°
2026-04-14 15:16 10.83127 122.49614 138 ft 2 kts 111°
2026-04-14 15:16 10.83121 122.49629 138 ft 2 kts 111°
2026-04-14 15:16 10.83114 122.49648 138 ft 0 kts 110°
2026-04-14 15:17 10.83114 122.49649 139 ft 0 kts 110°